User: anonymous   Login
Location: Brno
(49.2000°N, 16.6330°E)
Time: 21:38:08
(UTC+01:00)
Language:

BREEZE M DEB (TANK) - Orbit

View from above orbital plane
View from above orbital plane
View from above satellite
View from above satellite

Ground track
Ground track

The orbit data is extracted from the following two-line orbital elements,

1 28359U 04022B   17326.94276035 +.00003204 +00000-0 +46628-3 0  9998
2 28359 049.5019 248.3592 4656673 003.2202 358.9803 06.20668026295150
Epoch (UTC): 22 November 2017 22:37:34
Eccentricity: 0.4656673
inclination: 49.5019°
perigee height: 305 km
apogee height: 11953 km
right ascension of ascending node: 248.3592°
argument of perigee: 3.2202°
revolutions per day: 6.20668026
mean anomaly at epoch: 358.9803°
orbit number at epoch: 29515

The dashed part of the orbit path shows where the satellite is in the earth's shadow,  

DLR